Weather History for Boulder City, NV

Change the Weather History Date:

Monday, July 1, 2013

  Actual Average (KLAS) Record (KLAS)
Temperature  
Mean Temperature 100 °F 91 °F  
Max Temperature 111 °F 103 °F 116 °F (1972)
Min Temperature 89 °F 79 °F 58 °F (1938)
Degree Days  
Heating Degree Days 0 0  
Month to date heating degree days 0  
Since 1 June heating degree days 1  
Since 1 July heating degree days 0  
Cooling Degree Days 35 26  
Month to date cooling degree days 26  
Year to date cooling degree days 1226  
Since 1 June cooling degree days 676  
Growing Degree Days 50 (Base 50)    
Moisture  
Dew Point 44 °F    
Average Humidity 15    
Maximum Humidity 28    
Minimum Humidity 7    
Precipitation  
Precipitation 0.00 in 0.01 in 0.36 in (1980)
Month to date precipitation 0.01  
Year to date precipitation 2.09  
Snow  
Snow 0.00 in 0.00 in 0.00 in ()
Month to date snowfall 0.0  
Since 1 June snowfall 0.0  
Since 1 July snowfall 0.0  
Snow Depth -    
Sea Level Pressure  
Sea Level Pressure 29.83 in    
Wind  
Wind Speed 8 mph (SE)    
Max Wind Speed 24 mph    
Max Gust Speed 31 mph    
Visibility 10 miles    
Events Thunderstorm    
T = Trace of Precipitation, MM = Missing Value Source: NWS Daily Summary

Daily Weather History Graph

Daily Weather History Graph

Search for Another Location

Airport:

Trip Planner

Search our weather history database for the weather conditions in past years. The results will help you decide how hot, cold, wet, or windy it might be!

Date:

Astronomy

Jul. 01, 2013 Rise Set
Actual Time 5:26 AM PDT 7:59 PM PDT
Civil Twilight 4:56 AM PDT 8:30 PM PDT
Nautical Twilight 4:19 AM PDT 9:07 PM PDT
Astronomical Twilight 3:37 AM PDT 9:48 PM PDT
Moon 12:51 AM PDT (7/1) 2:25 PM PDT (7/1)
Length of Visible Light 15h 33m
Length of Day
14h 33m
Waning Crescent, 34% of the Moon is Illuminated
Jul 1
Waning Crescent
Jul 8
New
Jul 15
First Quarter
Jul 22
Full
Jul 29
Last Quarter

Hourly Weather History & Observations

Time (PDT) Temp. Heat Index Dew Point Humidity Pressure Visibility Wind Dir Wind Speed Gust Speed Precip Events Conditions
12:15 AM 100.4 °F - 41.0 °F 13% 29.80 in 10.0 mi South 8.1 mph - N/A   Clear
12:35 AM 96.8 °F - 46.4 °F 18% 29.80 in 10.0 mi NE 5.8 mph - N/A   Clear
12:55 AM 93.2 °F - 48.2 °F 21% 29.80 in 10.0 mi NE 4.6 mph - N/A   Clear
1:15 AM 95.0 °F - 41.0 °F 15% 29.81 in 10.0 mi East 5.8 mph - N/A   Clear
1:35 AM 100.4 °F - 41.0 °F 13% 29.80 in 10.0 mi South 6.9 mph - N/A   Clear
1:55 AM 98.6 °F - 46.4 °F 17% 29.81 in 10.0 mi ENE 6.9 mph - N/A   Clear
2:15 AM 98.6 °F - 42.8 °F 15% 29.81 in 10.0 mi East 5.8 mph - N/A   Clear
2:35 AM 98.6 °F - 41.0 °F 14% 29.81 in 10.0 mi ESE 6.9 mph - N/A   Clear
2:55 AM 98.6 °F - 41.0 °F 14% 29.81 in 10.0 mi ESE 8.1 mph - N/A   Clear
3:15 AM 98.6 °F - 41.0 °F 14% 29.80 in 10.0 mi SE 4.6 mph - N/A   Clear
3:35 AM 98.6 °F - 42.8 °F 15% 29.81 in 10.0 mi SE 6.9 mph - N/A   Clear
3:55 AM 95.0 °F - 44.6 °F 18% 29.81 in 10.0 mi South 4.6 mph - N/A Thunderstorm Clear
4:15 AM 95.0 °F - 44.6 °F 18% 29.81 in 10.0 mi ESE 4.6 mph - N/A   Clear
4:35 AM 95.0 °F - 44.6 °F 18% 29.82 in 10.0 mi WNW 3.5 mph - N/A   Clear
4:55 AM 89.6 °F - 50.0 °F 26% 29.82 in 10.0 mi NNW 3.5 mph - N/A   Clear
5:15 AM 91.4 °F - 44.6 °F 20% 29.84 in 10.0 mi SE 9.2 mph - N/A   Clear
5:35 AM 93.2 °F - 50.0 °F 23% 29.85 in 10.0 mi SSE 8.1 mph 19.6 mph N/A   Clear
5:55 AM 91.4 °F - 51.8 °F 26% 29.86 in 10.0 mi SSE 8.1 mph - N/A   Clear
6:15 AM 91.4 °F 89.1 °F 53.6 °F 28% 29.87 in 10.0 mi SE 11.5 mph - N/A   Clear
6:35 AM 91.4 °F 89.1 °F 53.6 °F 28% 29.89 in 10.0 mi SE 10.4 mph - N/A   Clear
6:55 AM 91.4 °F 89.1 °F 53.6 °F 28% 29.90 in 10.0 mi South 9.2 mph - N/A   Clear
7:15 AM 93.2 °F - 51.8 °F 24% 29.90 in 10.0 mi South 9.2 mph - N/A   Clear
7:35 AM 93.2 °F - 51.8 °F 24% 29.90 in 10.0 mi South 4.6 mph - N/A   Clear
8:15 AM 95.0 °F - 50.0 °F 22% 29.90 in 10.0 mi SSE 12.7 mph - N/A   Clear
8:35 AM 96.8 °F - 50.0 °F 20% 29.90 in 10.0 mi SSE 10.4 mph - N/A   Clear
8:55 AM 96.8 °F - 50.0 °F 20% 29.90 in 10.0 mi SSE 9.2 mph - N/A   Clear
9:15 AM 98.6 °F - 48.2 °F 18% 29.90 in 10.0 mi SSE 8.1 mph - N/A   Clear
9:35 AM 98.6 °F - 50.0 °F 19% 29.90 in 10.0 mi SSE 10.4 mph - N/A   Clear
9:55 AM 100.4 °F - 50.0 °F 18% 29.90 in 10.0 mi SE 9.2 mph - N/A   Clear
10:15 AM 100.4 °F - 48.2 °F 17% 29.90 in 10.0 mi ESE 10.4 mph 16.1 mph N/A   Clear
10:35 AM 100.4 °F - 48.2 °F 17% 29.90 in 10.0 mi ESE 11.5 mph 17.3 mph N/A   Clear
10:55 AM 102.2 °F - 48.2 °F 16% 29.89 in 10.0 mi East 11.5 mph - N/A   Clear
11:15 AM 102.2 °F - 48.2 °F 16% 29.89 in 10.0 mi ESE 13.8 mph 17.3 mph N/A   Clear
11:35 AM 102.2 °F - 48.2 °F 16% 29.89 in 10.0 mi SE 8.1 mph - N/A   Clear
11:55 AM 104.0 °F - 48.2 °F 15% 29.88 in 10.0 mi SE 6.9 mph 16.1 mph N/A   Clear
12:15 PM 104.0 °F - 48.2 °F 15% 29.87 in 10.0 mi East 6.9 mph - N/A Thunderstorm Clear
12:35 PM 105.8 °F - 48.2 °F 14% 29.87 in 10.0 mi ESE 9.2 mph - N/A Thunderstorm Clear
12:55 PM 107.6 °F - 46.4 °F 13% 29.86 in 10.0 mi SE 5.8 mph - N/A   Clear
1:15 PM 107.6 °F - 44.6 °F 12% 29.85 in 10.0 mi East 10.4 mph - N/A   Clear
1:35 PM 107.6 °F - 44.6 °F 12% 29.84 in 10.0 mi East 5.8 mph - N/A   Clear
1:55 PM 109.4 °F - 44.6 °F 11% 29.84 in 10.0 mi ESE 3.5 mph - N/A   Clear
2:15 PM 109.4 °F - 44.6 °F 11% 29.83 in 10.0 mi SE 11.5 mph - N/A   Clear
2:35 PM 109.4 °F - 44.6 °F 11% 29.82 in 10.0 mi ENE 8.1 mph - N/A   Clear
2:55 PM 109.4 °F - 44.6 °F 11% 29.82 in 10.0 mi ESE 8.1 mph 16.1 mph N/A   Clear
3:15 PM 109.4 °F - 42.8 °F 11% 29.81 in 10.0 mi ESE 8.1 mph - N/A Thunderstorm Clear
3:35 PM 109.4 °F - 44.6 °F 11% 29.80 in 10.0 mi SE 9.2 mph - N/A Thunderstorm Clear
3:55 PM 109.4 °F - 44.6 °F 11% 29.80 in 10.0 mi South 9.2 mph 16.1 mph N/A   Clear
4:15 PM 109.4 °F - 42.8 °F 11% 29.80 in 10.0 mi East 5.8 mph - N/A   Clear
4:35 PM 109.4 °F - 42.8 °F 11% 29.79 in 10.0 mi SSE 5.8 mph - N/A   Clear
4:55 PM 109.4 °F - 41.0 °F 10% 29.78 in 10.0 mi SSE 12.7 mph - N/A   Clear
5:15 PM 111.2 °F - 41.0 °F 9% 29.78 in 10.0 mi ESE 10.4 mph - N/A Thunderstorm Clear
5:35 PM 111.2 °F - 42.8 °F 10% 29.78 in 10.0 mi SE 11.5 mph - N/A   Clear
5:55 PM 111.2 °F - 44.6 °F 11% 29.77 in 10.0 mi South 15.0 mph - N/A   Clear
6:15 PM 109.4 °F - 44.6 °F 11% 29.78 in 10.0 mi SSE 18.4 mph 27.6 mph N/A   Clear
6:35 PM 107.6 °F - 42.8 °F 11% 29.78 in 10.0 mi SSE 24.2 mph 31.1 mph N/A   Clear
6:55 PM 107.6 °F - 42.8 °F 11% 29.79 in 10.0 mi SSE 24.2 mph 31.1 mph N/A   Clear
7:15 PM 105.8 °F - 44.6 °F 13% 29.80 in 10.0 mi South 20.7 mph 28.8 mph N/A   Clear
7:35 PM 105.8 °F - 39.2 °F 10% 29.81 in 10.0 mi South 15.0 mph 20.7 mph N/A   Clear
7:55 PM 105.8 °F - 33.8 °F 8% 29.81 in 10.0 mi SSE 12.7 mph - N/A   Clear
8:15 PM 105.8 °F - 32.0 °F 8% 29.82 in 10.0 mi SSE 9.2 mph - N/A   Clear
8:35 PM 105.8 °F - 32.0 °F 8% 29.80 in 10.0 mi South 9.2 mph - N/A   Clear
8:55 PM 107.6 °F - 32.0 °F 7% 29.79 in 10.0 mi WSW 9.2 mph - N/A   Clear
9:15 PM 105.8 °F - 32.0 °F 8% 29.80 in 10.0 mi SE 5.8 mph - N/A   Clear
9:35 PM 104.0 °F - 32.0 °F 8% 29.81 in 10.0 mi SW 10.4 mph - N/A   Clear
9:55 PM 104.0 °F - 35.6 °F 9% 29.82 in 10.0 mi SSW 9.2 mph - N/A   Clear
10:15 PM 102.2 °F - 35.6 °F 10% 29.83 in 10.0 mi SSW 4.6 mph - N/A   Partly Cloudy
10:35 PM 100.4 °F - 35.6 °F 11% 29.83 in 10.0 mi Calm Calm - N/A   Clear
10:55 PM 95.0 °F - 46.4 °F 19% 29.83 in 10.0 mi Calm Calm - N/A   Clear
11:15 PM 93.2 °F - 48.2 °F 21% 29.84 in 10.0 mi Calm Calm - N/A   Clear
11:35 PM 95.0 °F - 44.6 °F 18% 29.85 in 10.0 mi North 4.6 mph - N/A   Clear
11:55 PM 93.2 °F - 50.0 °F 23% 29.86 in 10.0 mi North 4.6 mph - N/A   Clear